Location: Bear Valley Community Church - Hurst
(32.8460°N, 97.1828°W)
Time: 10:56:20
(UTC+00:00)

Nadezhda 4 Rocket - Pass Details

Date: 08 December 2021
Orbit: 949 x 992 km, 82.9° (Epoch: 28 January)

Event Time Altitude Azimuth Distance (km) Brightness Sun altitude
Rises 12:26:38 0° 205° (SSW) 3,620 6.9 -11.0°
Reaches altitude 10° 12:29:17 10° 213° (SSW) 2,683 6.2 -10.4°
Maximum altitude 12:34:58 39° 281° (W) 1,411 4.4 -9.3°
Drops below altitude 10° 12:40:45 10° 349° (N) 2,724 6.0 -8.2°
Sets 12:43:29 0° 357° (N) 3,681 6.8 -7.7°
